TimeEST,TemperatureF,Dew PointF,Humidity,Sea Level PressureIn,VisibilityMPH,Wind Direction,Wind SpeedMPH,Gust SpeedMPH,PrecipitationIn,Events,Conditions,WindDirDegrees,DateUTC
12:14 AM,51.8,44.6,76,30.05,10.0,Calm,Calm,-,N/A,,Overcast,0,2012-11-10 05:14:00
12:35 AM,51.8,42.8,71,30.05,10.0,SSE,4.6,-,N/A,,Overcast,150,2012-11-10 05:35:00
12:55 AM,51.8,42.8,71,30.05,10.0,SSE,4.6,-,N/A,,Overcast,160,2012-11-10 05:55:00
1:14 AM,51.8,42.8,71,30.05,10.0,SSE,3.5,-,N/A,,Overcast,150,2012-11-10 06:14:00
1:35 AM,51.8,42.8,71,30.05,10.0,SSE,4.6,-,N/A,,Overcast,150,2012-11-10 06:35:00
1:55 AM,51.8,42.8,71,30.05,10.0,Calm,Calm,-,N/A,,Overcast,0,2012-11-10 06:55:00
2:14 AM,51.8,44.6,76,30.05,10.0,Calm,Calm,-,N/A,,Overcast,0,2012-11-10 07:14:00
2:35 AM,51.8,44.6,76,30.05,10.0,Calm,Calm,-,N/A,,Overcast,0,2012-11-10 07:35:00
2:55 AM,51.8,42.8,71,30.06,10.0,Calm,Calm,-,N/A,,Overcast,0,2012-11-10 07:55:00
3:15 AM,51.8,44.6,76,30.06,10.0,SE,3.5,-,N/A,,Overcast,140,2012-11-10 08:15:00
3:34 AM,51.8,42.8,71,30.06,10.0,SE,3.5,-,N/A,,Overcast,140,2012-11-10 08:34:00
3:55 AM,51.8,42.8,71,30.06,10.0,SSE,3.5,-,N/A,,Overcast,150,2012-11-10 08:55:00
4:15 AM,51.8,42.8,71,30.06,10.0,Calm,Calm,-,N/A,,Overcast,0,2012-11-10 09:15:00
4:34 AM,51.8,42.8,71,30.06,10.0,SSE,3.5,-,N/A,,Overcast,160,2012-11-10 09:34:00
4:55 AM,51.8,42.8,71,30.06,10.0,SSE,4.6,-,N/A,,Overcast,160,2012-11-10 09:55:00
5:15 AM,51.8,42.8,71,30.06,10.0,SSE,4.6,-,N/A,,Overcast,160,2012-11-10 10:15:00
5:34 AM,51.8,42.8,71,30.06,10.0,South,4.6,-,N/A,,Overcast,170,2012-11-10 10:34:00
5:55 AM,51.8,42.8,71,30.06,10.0,South,4.6,-,N/A,,Overcast,170,2012-11-10 10:55:00
6:15 AM,51.8,42.8,71,30.06,10.0,South,5.8,-,N/A,,Overcast,180,2012-11-10 11:15:00
6:34 AM,51.8,42.8,71,30.06,10.0,South,5.8,-,N/A,,Mostly Cloudy,170,2012-11-10 11:34:00
6:55 AM,51.8,42.8,71,30.06,10.0,South,5.8,-,N/A,,Overcast,170,2012-11-10 11:55:00
7:15 AM,51.8,42.8,71,30.06,10.0,South,6.9,-,N/A,,Overcast,170,2012-11-10 12:15:00
7:34 AM,51.8,42.8,71,30.06,10.0,South,5.8,-,N/A,,Overcast,180,2012-11-10 12:34:00
7:55 AM,51.8,42.8,71,30.07,10.0,South,6.9,-,N/A,,Overcast,180,2012-11-10 12:55:00
8:15 AM,51.8,42.8,71,30.08,10.0,South,6.9,-,N/A,,Mostly Cloudy,180,2012-11-10 13:15:00
8:34 AM,51.8,42.8,71,30.09,10.0,South,8.1,-,N/A,,Mostly Cloudy,180,2012-11-10 13:34:00
8:55 AM,51.8,42.8,71,30.09,10.0,South,6.9,-,N/A,,Mostly Cloudy,180,2012-11-10 13:55:00
9:14 AM,53.6,44.6,72,30.08,10.0,South,6.9,-,N/A,,Overcast,180,2012-11-10 14:14:00
9:55 AM,53.6,44.6,72,30.05,10.0,SSE,9.2,-,N/A,,Overcast,160,2012-11-10 14:55:00
10:14 AM,55.4,44.6,67,30.05,10.0,South,9.2,-,N/A,,Scattered Clouds,180,2012-11-10 15:14:00
10:34 AM,57.2,44.6,63,30.06,10.0,South,8.1,-,N/A,,Clear,190,2012-11-10 15:34:00
10:55 AM,59.0,46.4,63,30.06,10.0,SSW,10.4,-,N/A,,Clear,200,2012-11-10 15:55:00
11:14 AM,60.8,46.4,59,30.06,10.0,SSW,12.7,-,N/A,,Clear,210,2012-11-10 16:14:00
11:35 AM,60.8,46.4,59,30.05,10.0,SSW,10.4,-,N/A,,Clear,200,2012-11-10 16:35:00
11:55 AM,60.8,46.4,59,30.05,10.0,SSW,13.8,18.4,N/A,,Clear,210,2012-11-10 16:55:00
12:14 PM,60.8,46.4,59,30.05,10.0,SW,12.7,17.3,N/A,,Mostly Cloudy,220,2012-11-10 17:14:00
12:35 PM,60.8,46.4,59,30.03,10.0,SSW,11.5,-,N/A,,Mostly Cloudy,210,2012-11-10 17:35:00
12:55 PM,62.6,46.4,55,30.02,10.0,South,12.7,-,N/A,,Scattered Clouds,190,2012-11-10 17:55:00
1:14 PM,62.6,46.4,55,30.01,10.0,SSW,11.5,-,N/A,,Scattered Clouds,200,2012-11-10 18:14:00
1:35 PM,62.6,46.4,55,30.00,10.0,SSW,9.2,-,N/A,,Overcast,200,2012-11-10 18:35:00
1:54 PM,62.6,46.4,55,30.00,10.0,South,12.7,18.4,N/A,,Mostly Cloudy,180,2012-11-10 18:54:00
2:15 PM,64.4,46.4,52,29.99,10.0,SSW,13.8,-,N/A,,Clear,210,2012-11-10 19:15:00
2:35 PM,64.4,48.2,56,29.99,10.0,SSW,13.8,-,N/A,,Clear,200,2012-11-10 19:35:00
2:54 PM,64.4,46.4,52,30.00,10.0,South,12.7,-,N/A,,Clear,190,2012-11-10 19:54:00
3:15 PM,62.6,48.2,59,30.00,10.0,South,10.4,-,N/A,,Clear,190,2012-11-10 20:15:00
3:35 PM,64.4,48.2,56,29.99,10.0,South,10.4,-,N/A,,Clear,190,2012-11-10 20:35:00
3:54 PM,64.4,48.2,56,30.00,10.0,South,10.4,16.1,N/A,,Clear,180,2012-11-10 20:54:00
4:15 PM,62.6,48.2,59,30.01,10.0,South,8.1,-,N/A,,Clear,190,2012-11-10 21:15:00
4:35 PM,62.6,48.2,59,30.02,10.0,South,5.8,-,N/A,,Scattered Clouds,190,2012-11-10 21:35:00
4:54 PM,62.6,48.2,59,29.99,10.0,South,8.1,-,N/A,,Scattered Clouds,170,2012-11-10 21:54:00
5:15 PM,62.6,48.2,59,29.99,10.0,South,6.9,-,N/A,,Clear,170,2012-11-10 22:15:00
5:54 PM,62.6,48.2,59,29.98,10.0,South,11.5,-,N/A,,Clear,180,2012-11-10 22:54:00
6:15 PM,62.6,48.2,59,29.99,10.0,South,16.1,19.6,N/A,,Clear,190,2012-11-10 23:15:00
6:35 PM,62.6,48.2,59,29.99,10.0,South,15.0,19.6,N/A,,Scattered Clouds,190,2012-11-10 23:35:00
6:54 PM,62.6,48.2,59,29.99,10.0,South,15.0,20.7,N/A,,Clear,190,2012-11-10 23:54:00
7:15 PM,62.6,48.2,59,30.00,10.0,South,13.8,19.6,N/A,,Clear,190,2012-11-11 00:15:00
7:35 PM,62.6,48.2,59,30.00,10.0,South,16.1,21.9,N/A,,Clear,190,2012-11-11 00:35:00
7:55 PM,62.6,46.4,55,30.00,10.0,SSW,13.8,23.0,N/A,,Clear,200,2012-11-11 00:55:00
8:15 PM,62.6,46.4,55,30.00,10.0,South,13.8,20.7,N/A,,Clear,190,2012-11-11 01:15:00
8:34 PM,60.8,46.4,59,30.01,10.0,SSW,13.8,19.6,N/A,,Clear,200,2012-11-11 01:34:00
8:55 PM,62.6,46.4,55,30.01,10.0,South,15.0,24.2,N/A,,Clear,190,2012-11-11 01:55:00
9:15 PM,62.6,46.4,55,30.01,10.0,SSW,17.3,24.2,N/A,,Clear,200,2012-11-11 02:15:00
9:34 PM,62.6,46.4,55,30.01,10.0,SSW,16.1,20.7,N/A,,Clear,200,2012-11-11 02:34:00
9:55 PM,60.8,46.4,59,30.01,10.0,SSW,17.3,23.0,N/A,,Clear,200,2012-11-11 02:55:00
10:34 PM,60.8,44.6,55,30.02,10.0,SSW,12.7,23.0,N/A,,Clear,200,2012-11-11 03:34:00
10:55 PM,60.8,44.6,55,30.02,10.0,SSW,13.8,20.7,N/A,,Clear,200,2012-11-11 03:55:00
11:15 PM,59.0,44.6,59,30.02,10.0,SSW,13.8,-,N/A,,Clear,210,2012-11-11 04:15:00
11:34 PM,59.0,44.6,59,30.02,10.0,SSW,17.3,-,N/A,,Clear,200,2012-11-11 04:34:00
11:55 PM,57.2,44.6,63,30.02,10.0,SSW,15.0,-,N/A,,Clear,200,2012-11-11 04:55:00